Home   Weather   Victoria   Past weeks

Flag for USA Past Weather in Victoria, Texas, USA — Yesterday and Last 2 Weeks

Now
57 °F

Low clouds.


Feels Like: 55 °F
Forecast: 44 / 63 °F
Wind: 9 mph from Northeast

Location: Victoria Regional Airport

Current Time: Dec 7, 2016 at 10:26:47 am

Latest Report: Dec 7, 2016 at 9:51 am


Visibility: 4 mi

Pressure: 30.09 "Hg

Humidity: 78%

Dew Point: 50 °F

Location of VictoriaLocation

Past Weather in Victoria — Graph

°F

Victoria Temperature Yesterday

Maximum temperature yesterday: 72 °F (at 1:51 pm)
Minimum temperature yesterday: 43 °F (at 5:00 am)
Average temperature yesterday: 55 °F

High & Low Weather Summary for the Past Weeks

 TemperatureHumidityPressure
High82 °F (Nov 28, 11:51 am)100% (Nov 23, 6:58 am)30.36 "Hg (Nov 23, 6:58 am)
Low40 °F (Dec 1, 4:51 am)25% (Nov 30, 3:51 pm)29.53 "Hg (Nov 28, 3:51 pm)
Average61 °F82%29.97 "Hg
* Reported Nov 22 8:51 am — Dec 7 8:51 am, Victoria, Weather by CustomWeather, © 2016

Note: Actual official high and low records may vary slightly from our data, if they occured in-between our weather recording intervals... More about our weather records

Advertising

Victoria Weather History for the Previous 24 Hours

Scroll right to see more
 ConditionsComfort  
Time TempWeatherWind HumidityBarometerVisibility
8:51 am
Wed, Dec 7
60 °FLow clouds.9 mph67%30.09 "Hg4 mi
7:51 am60 °FLow clouds.8 mph65%30.07 "Hg4 mi
6:51 am60 °FLow clouds.9 mph62%30.06 "Hg6 mi
5:51 am56 °FLow clouds.8 mph72%30.05 "Hg6 mi
4:58 am52 °FLow clouds.10 mph83%30.03 "Hg3 mi
3:59 am50 °FPassing clouds.12 mph83%30.03 "Hg6 mi
2:51 am47 °FClear.6 mph90%30.03 "Hg7 mi
1:51 am48 °FClear.6 mph89%30.03 "Hg8 mi
12:51 am49 °FClear.5 mph90%30.04 "Hg10 mi
11:51 pm
Tue, Dec 6
49 °FClear.8 mph93%30.03 "Hg10 mi
10:51 pm48 °FClear.8 mph96%30.04 "Hg10 mi
9:51 pm48 °FClear.7 mph93%30.04 "Hg10 mi
8:51 pm49 °FClear.7 mph93%30.04 "Hg10 mi
7:51 pm50 °FClear.8 mph89%30.03 "Hg10 mi
6:51 pm53 °FClear.10 mph80%30.01 "Hg10 mi
5:51 pm58 °FClear.13 mph75%29.98 "Hg10 mi
4:51 pm64 °FSunny.10 mph63%29.95 "Hg10 mi
3:51 pm69 °FSunny.10 mph47%29.93 "Hg10 mi
2:51 pm71 °FSunny.13 mph45%29.91 "Hg10 mi
1:51 pm72 °FSunny.12 mph44%29.90 "Hg10 mi
12:51 pm70 °FSunny.9 mph49%29.91 "Hg10 mi
11:51 am67 °FSunny.8 mph66%29.93 "Hg10 mi
10:51 am64 °FSunny.10 mph73%29.95 "Hg10 mi
Weather by CustomWeather, © 2016

See weather overviewHow to use our weather pages